Regional Weather Roundup
Issued by NWS Kansas City/Pleasant Hill, MO

Home | Current Version | Previous Version | Graphics & Text | Print | Product List | Glossary Off
Versions: 1 2 3 4 5 6 7 8 9 10 11 12 13 14 15 16 17 18 19 20 21 22 23 24 25 26 27 28 29 30 31 32 33 34 35 36 37 38 39 40 41 42 43 44 45 46 47 48 49 50

000
ASUS43 KEAX 280810
RWREAX

WEATHER ROUNDUP FOR EASTERN KANSAS AND NORTHWEST MISSOURI
NATIONAL WEATHER SERVICE KANSAS CITY/PLEASANT HILL MO
300 AM CDT SUN AUG 28 2016

KSZ040-057-103>105-MOZ028-029-037-043-280900-
...KANSAS CITY METROPOLITAN AREA...

CITY           SKY/WX    TMP DP  RH WIND       PRES   REMARKS
K.C. INTL      CLEAR     72  68  87 SE6       30.07F
K.C. DOWNTOWN  CLEAR     74  70  87 E5        30.06S
LEES SUMMIT    CLEAR     75  70  84 S5        30.08S
OLATHE - IXD   PTCLDY    73  71  93 SE6       30.08S
OLATHE - OJC   CLEAR     72  70  93 SE3       30.08S
LAWRENCE       PTCLDY    69  68  96 CALM      30.06S

$$

MOZ001>008-011>017-020>025-030>033-038>040-044>046-053-054-280900-
...NORTHERN AND CENTRAL MISSOURI...

CITY           SKY/WX    TMP DP  RH WIND       PRES   REMARKS
ST. JOSEPH     CLOUDY    69  68  96 CALM      30.07S
MOSBY          SUNNY     70  70 100 CALM      30.07F
WHITEMAN AFB   CLEAR     73  73 100 S3        30.07S
CLINTON        CLEAR     70  70 100 CALM      30.08F FOG
SEDALIA        CLEAR     72  70  93 S3        30.09F
WARSAW         NOT AVBL
CHILLICOTHE    NOT AVBL
KIRKSVILLE     CLEAR     69  67  93 N5        30.11S

$$

MOZ041-047>049-056>058-063>065-088>090-097-280900-
...EASTERN AND SOUTHERN MISSOURI...

CITY           SKY/WX    TMP DP  RH WIND       PRES   REMARKS
ST. LOUIS INTL MOCLDY    77  71  82 NW3       30.12R
SPIRIT OF STL  PTCLDY    73  73 100 S3        30.10R FOG
COLUMBIA       PTCLDY    73  71  93 SE3       30.10R
JEFFERSON CITY MOCLDY    73  71  93 CALM      30.09R
ROLLA          PTCLDY    72  70  93 S6        30.11S
OSAGE BEACH    CLOUDY    72  71  97 CALM      30.11R
SPRINGFIELD    PTCLDY    75  70  84 SE9       30.09F
BRANSON        CLEAR     72  72 100 CALM      30.13R
JOPLIN         CLOUDY    73  71  93 CALM      30.07S
WEST PLAINS    PTCLDY    69  67  93 N3        30.14S FOG

$$

IAZ060-094-KSZ022-034>040-054-083-096-NEZ052-066-093-280900-
...KANSAS...SOUTHEAST NEBRASKA AND IOWA...

CITY           SKY/WX    TMP DP  RH WIND       PRES   REMARKS
TOPEKA         PTCLDY    71  68  90 CALM      30.06S
MANHATTAN      PTCLDY    74  68  81 CALM      30.04S
EMPORIA        PTCLDY    70  68  93 SE7       30.05F
CHANUTE        CLEAR     73  70  90 S5        30.05F
WICHITA        PTCLDY    73  68  84 S5        30.04R
OMAHA          CLOUDY    70  65  84 CALM      30.06F
LINCOLN        CLEAR     64  62  93 CALM      30.06S
FALLS CITY     CLOUDY    70  69  97 E5        30.06R
LAMONI         MOCLDY    70  69  97 E5        30.10F
DES MOINES     PTCLDY    71  69  93 SE3       30.09S

$$




USA.gov is the U.S. government's official web portal to all federal, state and local government web resources and services.